Dewpoint
32 33 35 42 44 45 44 43 43 44 44 43 42 42 42 43 42 41 39 38 39 39 38 39 42 46 49 49 48 46 46 43 43 41 40 40 40 39 38 38 38 38 38
27 28 30 34 39 44 45 44 44 44 44 43 42 41 42 41 41 40 37 35 37 38 37 38 41 44 47 47 47 46 44 43 42 40 39 37 38 38 38 37 36 35 36
24 25 26 29 31 35 43 44 44 44 44 42 40 39 39 38 39 38 35 33 35 36 36 36 39 43 46 47 46 45 44 42 42 41 38 35 32 36 37 36 35 34 33
22 23 24 26 28 30 35 43 44 44 43 41 40 39 40 39 38 37 35 33 33 34 35 35 37 40 43 46 45 45 43 42 40 40 39 38 38 33 32 36 34 34 33
19 20 22 24 25 27 30 34 42 42 42 41 40 39 39 38 36 35 35 32 32 33 34 34 35 36 40 43 44 43 42 42 41 39 38 35 36 37 33 31 33 34 34
17 18 20 21 22 24 26 29 33 35 39 41 40 39 38 37 35 34 34 32 31 31 33 33 34 35 36 39 41 41 41 41 40 39 37 36 37 36 35 33 32 31 32
16 17 18 19 20 21 23 25 27 30 33 36 41 40 38 36 35 34 34 32 31 31 31 32 33 33 34 35 37 39 39 39 39 39 37 36 35 34 35 33 32 31 32
15 16 17 18 19 20 21 23 24 25 28 31 34 35 39 38 36 35 34 33 32 31 31 32 32 33 33 34 34 34 35 36 36 36 36 36 35 33 33 34 31 30 30
14 16 16 16 17 18 20 21 22 23 25 27 28 31 34 34 38 38 35 34 33 32 32 31 31 32 32 33 33 33 33 33 33 33 33 33 33 33 33 33 32 31 28
12 13 15 16 17 17 18 19 20 22 23 24 25 26 28 31 33 34 33 34 34 33 32 31 31 31 32 32 32 32 31 31 31 31 31 31 31 31 32 32 32 30 30
13 13 14 14 15 16 16 17 18 19 20 22 23 24 25 27 27 29 33 33 32 32 32 31 31 31 30 31 31 30 30 30 29 28 29 30 29 30 30 30 31 29 29
13 12 12 13 13 14 15 16 17 17 19 21 21 22 23 24 25 25 27 28 32 33 32 30 31 30 30 29 29 29 28 28 28 28 27 28 27 28 28 29 29 29 28
11 12 12 12 13 13 14 15 16 16 17 20 19 19 20 20 21 23 24 26 27 28 32 33 32 30 29 28 28 28 27 27 27 27 26 26 26 26 26 27 27 27 27
9 9 10 11 12 13 13 14 15 16 17 16 18 17 18 19 20 21 21 22 23 24 26 28 31 32 33 32 31 31 31 30 29 29 28 27 25 25 26 26 26 26 26
7 8 8 8 10 10 10 11 12 14 16 15 16 16 17 17 17 18 19 20 21 21 23 24 26 30 31 31 31 32 32 32 32 32 32 31 31 30 30 29 27 27 27
4 6 7 7 8 8 9 9 9 11 14 14 13 15 15 15 16 16 17 17 18 19 20 21 22 23 26 33 33 33 31 31 31 31 32 32 33 34 35 35 34 32 31
3 4 5 7 7 8 8 8 9 11 9 11 10 9 9 11 12 13 14 13 15 16 15 19 21 20 22 28 31 29 30 31 31 30 30 30 31 32 32 33 35 35 35
2 3 4 5 6 7 7 7 8 7 7 8 7 6 6 7 7 6 7 7 9 12 11 14 18 19 20 25 27 27 25 25 26 27 28 29 29 30 30 30 30 30 31
1 2 4 5 6 5 5 6 5 4 5 5 3 3 2 3 4 4 5 5 6 7 7 5 8 12 13 17 21 25 23 24 23 24 24 25 25 27 31 29 28 28 28
2 3 3 4 3 2 4 4 2 2 2 0 -3 -1 -0 0 0 1 3 4 5 3 3 2 3 4 5 4 10 17 22 20 20 23 23 24 26 27 29 28 27 26 27
3 3 3 2 3 4 4 1 -1 1 -1 -4 -2 -2 -3 -3 -2 -2 1 1 2 3 4 4 4 4 5 7 9 11 16 20 17 18 19 20 21 23 26 29 28 26 27
1 1 2 1 2 2 1 -2 -2 -3 -4 -3 -3 -3 -3 -3 -4 -2 -1 1 3 3 3 4 4 4 5 5 7 11 14 16 20 19 17 19 18 20 22 24 27 28 30
0 1 0 -0 2 -3 -3 -4 -4 -4 -3 -3 -3 -3 -2 -2 -2 0 1 -1 1 3 5 4 4 4 4 5 7 9 11 15 20 22 23 20 19 19 22 23 23 24 26
-1 -2 1 -2 -5 -4 -4 -4 -4 -4 -4 -3 -3 -2 -2 -0 0 -1 -1 1 2 3 2 3 3 4 5 7 7 7 7 8 7 8 8 13 18 23 25 22 21 25 25
-4 0 -6 -6 -6 -5 -4 -4 -4 -4 -3 -3 -2 -1 -1 -1 -0 0 1 2 4 5 5 7 7 7 7 8 9 10 10 10 10 11 9 8 6 6 12 18 21 22 22
-2 -6 -5 -5 -5 -5 -5 -5 -4 -4 -3 -2 -2 -2 -1 0 1 2 2 3 4 5 6 6 7 9 9 9 11 14 16 16 17 21 15 11 10 8 5 8 14 19 20
Wind_Speed
26 31 35 38 11 11 17 21 22 20 20 16 15 12 14 10 8 8 8 9 9 10 10 9 10 10 14 14 14 10 14 8 11 11 10 8 7 8 8 8 9 10 9
35 36 37 37 35 16 7 12 16 18 19 15 10 6 8 4 4 7 8 9 10 10 10 11 12 13 12 14 15 16 10 5 10 7 5 4 0 3 5 5 5 6 6
32 35 37 35 35 34 23 5 7 12 13 14 14 9 9 4 5 6 6 7 7 9 9 10 11 12 13 16 16 16 14 15 12 7 5 5 6 3 1 2 3 4 4
31 33 35 36 35 33 30 22 1 8 7 14 17 16 13 12 9 10 8 9 8 8 9 10 11 12 12 15 17 15 12 13 18 5 2 2 5 5 4 1 1 1 1
30 32 32 31 31 33 31 30 20 15 5 2 9 15 12 9 7 7 12 10 8 7 8 9 10 12 12 13 16 16 14 14 14 9 5 2 3 4 3 4 5 3 4
29 29 29 30 33 33 35 32 30 27 22 11 7 6 12 12 9 10 12 12 9 8 8 9 10 10 11 13 15 14 15 16 11 14 9 8 5 6 4 3 3 7 6
27 30 34 34 34 35 35 31 32 30 27 23 17 9 7 7 9 12 14 14 12 11 13 10 10 10 10 11 10 14 15 15 15 15 15 9 7 5 6 6 4 5 4
25 27 29 28 29 31 32 32 32 31 30 26 24 20 16 7 5 7 9 11 14 14 8 12 10 10 9 10 10 10 12 12 14 16 14 13 14 8 8 8 9 4 6
25 26 26 27 28 29 29 29 29 29 29 26 24 24 21 19 14 9 5 7 8 8 10 10 11 10 10 10 10 11 12 11 11 13 12 13 11 12 11 9 9 11 11
23 23 24 25 25 26 26 26 27 27 27 26 24 22 22 21 18 15 15 12 8 7 8 10 11 11 10 10 10 10 8 11 10 10 11 11 8 10 11 12 11 8 11
21 21 21 21 22 23 25 26 27 27 27 26 24 23 22 21 20 19 17 16 13 11 6 7 8 9 10 9 10 9 8 10 9 7 10 11 8 10 8 7 8 10 7
18 19 20 20 22 23 24 24 24 25 24 22 22 22 21 21 21 20 20 19 16 14 13 7 2 4 6 7 9 10 9 10 10 10 9 10 7 8 7 8 9 10 8
19 19 20 21 21 21 21 22 22 22 23 20 20 21 21 22 21 20 20 20 18 17 14 11 9 6 4 2 1 3 4 5 7 8 8 8 9 8 7 7 8 6 5
16 17 18 19 20 20 19 20 20 20 19 22 18 19 20 19 18 18 19 19 19 19 18 15 10 6 2 2 4 4 4 3 3 4 4 4 6 7 8 7 8 7 8
17 18 19 19 18 19 20 19 17 17 17 18 17 17 17 17 18 18 18 17 17 17 17 17 16 11 6 4 4 5 7 9 8 7 7 7 7 6 5 5 6 7 7
16 16 17 18 19 20 20 19 19 19 16 14 14 14 15 15 15 14 15 16 16 16 14 14 14 15 12 16 5 5 8 8 9 9 10 11 13 13 15 16 17 15 15
16 16 17 16 17 18 19 19 19 18 18 15 14 15 16 15 14 14 13 14 13 13 14 13 11 12 13 18 16 11 6 8 10 10 9 9 8 11 10 12 14 17 19
20 19 17 18 16 17 17 17 17 17 17 14 15 16 17 18 17 15 14 15 13 13 13 12 10 11 12 15 15 13 9 8 6 3 2 7 9 9 9 9 10 4 3
20 19 18 19 18 18 17 16 17 17 16 14 17 17 18 18 18 18 16 14 13 14 12 11 12 11 11 13 12 10 6 4 3 2 3 2 1 3 4 10 10 9 8
18 20 20 17 16 18 17 16 17 16 13 15 20 18 17 17 18 17 15 12 12 14 12 14 12 14 13 16 13 10 5 7 6 4 4 6 5 8 9 6 4 9 10
19 18 17 19 19 18 15 16 16 13 11 17 15 16 17 18 18 17 14 14 14 12 13 12 13 13 12 13 15 13 8 8 9 8 6 6 8 11 13 14 9 10 7
18 17 17 16 15 15 16 18 15 16 18 15 16 17 16 15 16 16 16 14 12 11 14 14 13 11 11 15 15 15 14 13 12 11 10 9 13 12 13 13 13 15 14
19 18 17 19 14 17 15 18 20 20 18 18 18 17 16 16 16 15 12 14 13 13 14 13 14 14 13 11 16 16 16 17 13 9 11 16 16 17 16 19 16 15 9
20 18 18 18 20 17 19 18 20 19 19 20 18 17 16 18 13 14 14 13 12 13 12 13 14 14 14 12 12 13 12 15 13 13 11 12 12 11 11 16 16 11 10
19 15 19 18 19 19 19 18 20 19 20 19 18 18 16 16 17 15 14 15 13 15 16 16 16 16 15 15 17 17 14 14 16 17 12 12 12 12 12 8 4 6 7
16 18 18 19 20 20 20 20 18 18 18 18 17 17 18 16 15 15 17 19 21 22 23 24 23 17 23 25 24 24 24 24 23 19 17 18 17 15 15 16 14 11 11
Wind_Direction
355 0 1 0 298 216 201 197 187 183 174 178 183 189 196 195 199 200 200 197 196 193 188 186 180 175 170 167 150 129 135 118 124 99 80 59 57 63 59 64 68 63 59
6 4 4 6 4 344 273 207 200 184 182 177 162 162 169 177 184 194 204 202 200 195 192 189 189 182 169 163 159 150 136 135 161 145 125 158 221 52 45 61 74 71 65
8 5 4 5 4 3 347 282 210 186 178 155 140 109 107 102 181 203 212 212 205 200 199 198 193 189 178 177 174 162 158 162 192 168 149 149 200 156 355 28 51 58 63
10 9 5 5 4 0 2 0 356 179 171 162 171 172 185 188 200 200 197 203 202 206 205 202 199 196 191 186 183 179 172 161 183 200 202 74 138 165 188 282 297 353 174
13 10 6 3 4 7 6 10 17 26 33 211 191 183 187 180 178 185 198 203 207 211 212 209 204 205 200 200 190 186 185 179 184 180 156 149 92 106 133 188 215 254 237
10 11 8 7 8 9 12 11 14 18 15 17 354 277 209 189 184 198 207 209 212 216 217 214 213 212 209 206 203 197 196 192 189 195 182 174 171 186 155 140 198 211 223
13 10 9 8 5 8 9 10 11 13 13 17 18 356 332 291 247 209 210 208 214 223 223 212 213 214 213 211 203 204 206 204 210 206 214 206 203 160 159 149 160 200 207
15 12 9 7 5 5 7 9 10 10 10 14 17 18 15 359 318 303 292 250 226 225 221 219 219 220 214 209 205 209 216 214 223 227 226 231 228 200 188 183 164 178 204
13 11 7 7 6 5 5 6 7 8 8 11 14 14 16 16 8 355 312 282 280 282 254 234 225 220 218 214 204 211 217 213 222 231 231 233 233 218 213 202 191 197 217
13 11 8 3 3 3 3 5 7 9 5 6 14 14 11 9 14 23 20 5 329 297 270 253 239 230 223 214 208 214 211 212 219 220 221 220 215 214 210 209 208 203 207
8 5 4 8 2 1 2 3 4 4 5 1 6 12 11 10 13 13 11 11 10 3 307 269 257 244 235 220 214 217 212 222 224 213 218 226 208 208 199 196 194 198 187
6 2 3 360 5 3 360 359 360 0 358 360 3 8 9 9 12 12 8 5 6 9 7 7 297 243 236 233 221 223 211 217 223 223 211 218 195 205 193 193 198 203 199
360 0 359 358 357 358 357 354 353 355 354 352 3 6 7 9 8 6 5 6 7 5 5 13 32 54 81 125 193 211 220 220 218 216 215 216 195 199 192 191 189 181 183
355 356 355 352 350 349 349 349 348 346 352 351 1 5 3 3 3 4 6 7 4 6 6 4 2 4 23 131 149 151 145 143 154 163 170 179 198 209 204 202 201 188 184
349 347 346 342 343 344 343 342 342 343 344 348 347 359 358 1 4 4 2 1 7 5 2 3 4 7 16 333 273 226 212 205 198 191 195 197 193 199 201 206 208 194 193
338 335 335 334 336 338 335 336 336 336 335 337 339 343 349 351 354 354 356 357 356 358 360 5 5 0 357 13 342 283 236 234 234 234 226 222 224 226 223 219 211 202 210
330 328 327 325 324 326 326 329 329 329 334 339 343 347 345 344 345 344 345 345 341 343 350 346 2 358 347 352 3 24 347 235 228 229 224 219 219 214 211 238 236 222 218
328 324 319 318 316 316 321 322 325 329 331 336 343 342 345 339 336 341 342 338 333 332 332 329 341 342 336 336 354 19 15 19 27 58 193 213 207 206 201 208 222 213 245
311 304 303 306 310 315 317 319 323 324 329 338 338 332 333 331 327 330 330 330 331 329 323 326 329 321 313 326 330 350 352 338 323 350 359 346 294 239 231 202 205 204 204
304 307 308 305 308 312 314 321 319 317 318 332 325 321 325 322 321 313 315 319 322 317 317 316 312 316 317 311 308 306 305 301 285 251 245 273 272 272 266 260 221 221 201
304 305 309 308 306 308 314 317 313 306 316 319 311 316 318 315 309 312 316 314 311 311 314 315 308 305 304 301 301 292 271 267 269 265 255 245 255 261 263 270 227 220 203
315 317 313 310 310 312 319 314 313 319 318 313 312 309 307 305 307 307 305 301 302 312 312 308 307 303 301 300 298 290 279 263 258 254 252 243 259 259 257 252 257 260 243
319 318 317 317 320 319 318 320 317 317 316 314 309 304 303 303 300 298 303 306 301 304 306 307 307 303 304 301 302 298 292 288 278 267 249 251 249 254 256 256 246 245 247
317 321 321 319 316 321 319 312 311 314 313 310 308 306 305 303 310 306 298 295 290 287 283 278 278 277 280 282 281 284 284 285 286 288 288 279 276 290 268 236 245 246 222
313 317 316 314 313 314 310 308 308 310 307 306 305 304 303 302 298 294 292 288 280 273 271 265 257 260 262 264 272 268 255 247 251 259 251 256 254 253 262 273 254 210 219
319 315 311 310 309 307 305 305 304 304 301 300 303 301 302 298 289 289 292 289 292 293 291 289 287 282 283 286 284 282 281 279 275 254 233 231 230 230 234 235 232 224 226